This is the latest recevied weather packets stored in our database for station/object CE3TDM-10. If no packets are shown the sender has not sent any weather packets the latest 10 day(s).
| Time | Temp. | Humidity | Pressure | Rain* | Wind** | Luminosity | Snow |
|---|---|---|---|---|---|---|---|
| 1787960067 | 24.44° C | 34% | 921.9 hPa | - | - | - | - |
| 1787958267 | 24.44° C | 34% | 921.8 hPa | - | - | - | - |
| 1787956467 | 24.44° C | 33% | 921.4 hPa | - | - | - | - |
| 1787955566 | 24.44° C | 33% | 921.3 hPa | - | - | - | - |
| 1787954666 | 24.44° C | 33% | 921 hPa | - | - | - | - |
| 1787953766 | 24.44° C | 33% | 921 hPa | - | - | - | - |
| 1787952866 | 25° C | 32% | 920.9 hPa | - | - | - | - |
| 1787951966 | 26.11° C | 33% | 920.8 hPa | - | - | - | - |
| 1787951066 | 26.67° C | 33% | 920.6 hPa | - | - | - | - |
| 1787950166 | 26.11° C | 33% | 920.5 hPa | - | - | - | - |
| 1787948366 | 26.67° C | 32% | 920.3 hPa | - | - | - | - |
| 1787946566 | 27.22° C | 31% | 920.2 hPa | - | - | - | - |
| 1787944765 | 27.78° C | 33% | 920.1 hPa | - | - | - | - |
| 1787942965 | 28.33° C | 32% | 920.1 hPa | - | - | - | - |
| 1787942065 | 29.44° C | 32% | 919.9 hPa | - | - | - | - |
| 1787941165 | 29.44° C | 33% | 919.9 hPa | - | - | - | - |
| 1787940568 | 29.44° C | 33% | 920 hPa | - | - | - | - |
| 1787940265 | 29.44° C | 33% | 920 hPa | - | - | - | - |
| 1787939365 | 30° C | 33% | 920.1 hPa | - | - | - | - |
| 1787938465 | 31.67° C | 32% | 920.3 hPa | - | - | - | - |
| 1787936665 | 33.33° C | 33% | 920.5 hPa | - | - | - | - |
| 1787935891 | 33.33° C | 34% | 920.6 hPa | - | - | - | - |
| 1787935765 | 33.33° C | 34% | 920.6 hPa | - | - | - | - |
| 1787934061 | 32.78° C | 36% | 920.7 hPa | - | - | - | - |
| 1787933965 | 32.78° C | 36% | 920.7 hPa | - | - | - | - |
* Rain since midnight (hover to see other rain measurements)
** Current wind speed in m/s (hover to see current wind gust speed)